Notices

What's New in latest Release from April 7th, 2021:

- Updated Glossary, including Speed of Maximum Gust, and Total Hourly Precipitation

- Updated national and regional climate services offices contacts and prices information

- Addition of station inventory lists for 1981-2010, 1971-2000, and 1961-1990 Normals.

If you haven't already, please take our survey and provide feedback about our website: https://eccc.sondage-survey.ca/f/LanguageSelection.aspx?s=442ca660-fcf1-47c0-95a9-59707d6fd709

Hourly Data Report for March 06, 2010

HALIFAX STANFIELD INT'L A
NOVA SCOTIA

44°52'48.060" N
63°30'00.050" W
145.40 m
8202250
71395
YHZ

Download Data

Hourly Data (March 2010)
Hourly Data Report for March 6, 2010
TIME
LST
Temp Definition
°C
Dew Point Definition
°C
Rel Hum Definition
%
Precip. Amount Definition
mm

Wind Dir Definition
10's deg

Wind Spd Definition
km/h
Visibility Definition
km
Stn Press Definition
kPa
Hmdx Definition


Wind Chill Definition


Weather Definition


00:00 -5.0 -9.8 69   35 35 24.1 99.02   -14 Clear
01:00 -4.8 -10.6 64   35 24 24.1 99.05   -12 Clear
02:00 -4.5 -11.0 60   34 22 24.1 99.05   -11 Clear
03:00 -4.4 -11.4 58   34 20 24.1 99.00   -11 Clear
04:00 -3.7 -11.8 53   32 17 24.1 99.01   -9 Clear
05:00 -4.0 -11.3 57   34 19 24.1 99.01   -10 Clear
06:00 -3.6 -10.2 60   33 22 24.1 99.02   -10 Clear
07:00 -3.7 -9.4 65   33 28 24.1 99.00   -11 Clear
08:00 -2.5 -8.9 61   34 32 24.1 99.00   -10 Clear
09:00 -1.1 -8.9 55   34 32 24.1 99.01   -8 Clear
10:00 1.2 -8.5 48   35 30 24.1 98.99     Clear
11:00 2.2 -9.7 41   34 35 24.1 98.97     Clear
12:00 3.3 -8.1 43   35 37 24.1 98.93     Mainly Clear
13:00 3.7 -8.3 41   35 39 24.1 98.84     Mainly Clear
14:00 3.8 -7.8 42   33 35 24.1 98.75     Mainly Clear
15:00 4.3 -7.1 43   33 37 24.1 98.76     Mainly Clear
16:00 3.9 -7.1 44   36 37 24.1 98.75     Clear
17:00 2.9 -7.6 46   34 37 24.1 98.77     Clear
18:00 0.9 -7.3 54   36 28 24.1 98.82     Mainly Clear
19:00 -0.9 -8.5 56   36 9 24.1 98.88   -4 Clear
20:00 -0.7 -8.1 57   33 9 24.1 98.85   -4 Clear
21:00 -1.1 -9.0 55   32 9 24.1 98.86   -4 Mainly Clear
22:00 -1.5 -8.8 57   33 9 24.1 98.84   -5 Mainly Clear
23:00 -2.5 -8.3 64   2 13 24.1 98.85   -7 Mainly Clear

Notes on Data Quality.

Legend

  • E = Estimated
  • M = Missing
  • NA = Not Available*
  • [empty] = Indicates an unobserved value
Date modified: